FALCON 9 DEB (46085 NORAD) Tracking and Keplerian Element Data

This shows tracking and keplerian element data for the satellite.

Feedback or suggestion? Click here.




ElementValue
Catalog46085
NameFALCON 9 DEB
Epoch Orbit2260
Epoch Day335.7326088
Epoch Year2020
RAAN89.7097
Inclination53.0132
Eccentricity0.0010544
Argument of Perigee316.4178
Mean Anonmoly43.5999
Mean Motion15.59351834
Decay Rate0.00020897
L11 46085U 20055BL 20335.73260880 .00020897 00000-0 26532-3 0 9999
L22 46085 53.0132 89.7097 0010544 316.4178 43.5999 15.59351834 22606

Live tracking and technical data element details for FALCON 9 DEB (NORAD 46085). FALCON 9 DEB can be tracked NOW for your location showing map with azimuth and elevation plus other details from your city location.

Track the satellite on the map from your city or location and see movement details for azimuth, elevation, latitude, longitude, range, height, and movement on the map or in text.







IsCatalogInMostPopularTable: catalog: 46085, numindb: 23
Update: records affected: 1



GetName: 46085 FALCON 9 DEB

Hit Count: updated at: Tue, 01 Dec 2020 20:31:51 GMT